Location: Neuvy Saint Sepulchre
(46.5953°N, 1.8122°E)
Time: 11:29:16
(UTC+01:00)

ISS - Pass Details

Date: 25 November 2019
Orbit: 411 x 421 km, 51.6° (Epoch: 09 December)

Event Time Altitude Azimuth Distance (km) Brightness Sun altitude
Rises 19:10:38 0° 248° (WSW) 2,350 1.5 -20.1°
Reaches altitude 10° 19:12:43 10° 250° (WSW) 1,491 0.2 -20.5°
Enters shadow 19:15:53 71° 303° (WNW) 447 -3.6 -21.0°
